This is the latest recevied weather packets stored in our database for station/object KF6RAL-6. If no packets are shown the sender has not sent any weather packets the latest 10 day(s).
| Time | Temp. | Humidity | Pressure | Rain* | Wind** | Luminosity | Snow |
|---|---|---|---|---|---|---|---|
| 1777871682 | 17.78° C | 31% | 1007 hPa | 0 mm | - | - | - |
| 1777871261 | 17.78° C | 32% | 1007.2 hPa | 0 mm | - | - | - |
| 1777870839 | 17.22° C | 32% | 1007.5 hPa | 0 mm | - | - | - |
| 1777870419 | 17.78° C | 42% | 1007.3 hPa | 0 mm | - | - | - |
| 1777869998 | 17.78° C | 40% | 1007.9 hPa | 0 mm | - | - | - |
| 1777869576 | 18.33° C | 39% | 1007.9 hPa | 0 mm | - | - | - |
| 1777869156 | 19.44° C | 38% | 1007.7 hPa | 0 mm | - | - | - |
| 1777868734 | 18.89° C | 34% | 1007.6 hPa | 0 mm | - | - | - |
| 1777868313 | 19.44° C | 31% | 1007.7 hPa | 0 mm | - | - | - |
| 1777867892 | 19.44° C | 28% | 1007.6 hPa | 0 mm | - | - | - |
| 1777867471 | 19.44° C | 29% | 1007.5 hPa | 0 mm | - | - | - |
| 1777867051 | 19.44° C | 29% | 1007.5 hPa | 0 mm | - | - | - |
| 1777866629 | 19.44° C | 29% | 1007.6 hPa | 0 mm | - | - | - |
| 1777866208 | 19.44° C | 29% | 1007.8 hPa | 0 mm | - | - | - |
| 1777865787 | 19.44° C | 30% | 1007.9 hPa | 0 mm | - | - | - |
| 1777865367 | 19.44° C | 34% | 1007.8 hPa | 0 mm | - | - | - |
| 1777864947 | 19.44° C | 35% | 1007.6 hPa | 0 mm | - | - | - |
| 1777864524 | 20° C | 32% | 1007.7 hPa | 0 mm | - | - | - |
| 1777863682 | 20° C | 28% | 1007.6 hPa | 0 mm | - | - | - |
| 1777863262 | 20° C | 27% | 1007.5 hPa | 0 mm | - | - | - |
| 1777862840 | 20.56° C | 27% | 1007.5 hPa | 0 mm | - | - | - |
| 1777862419 | 20° C | 27% | 1007.7 hPa | 0 mm | - | - | - |
| 1777861998 | 20° C | 28% | 1007.8 hPa | 0 mm | - | - | - |
| 1777861577 | 20° C | 30% | 1007.7 hPa | 0 mm | - | - | - |
| 1777861156 | 20.56° C | 29% | 1007.5 hPa | 0 mm | - | - | - |
* Rain latest hour (hover to see other rain measurements)
** Current wind speed in m/s (hover to see current wind gust speed)